Tracking 19572 objects as of 24-Feb-2019
HD Live streaming from Space Station
objects crossing your sky now

OPS 9311 (IDSCS 1)

Track OPS 9311 (IDSCS 1) now!
OPS 9311 (IDSCS 1) is classified as:


NORAD ID: 2215
Int'l Code: 1966-053B
Perigee: 33,667.9 km
Apogee: 33,892.3 km
Inclination: 3.9 °
Period: 1,334.5 minutes
Semi major axis: 40151 km
RCS: 0.1671 m2 (medium)
Launch date: June 16, 1966
Source: United States (US)
Launch site: AIR FORCE EASTERN TEST RANGE (AFETR)
aabbcc
Your satellite tracking list
Your tracking list is empty




NASA's NSSDC Master Catalog

Two Line Element Set (TLE):
1  2215U 66053B   19044.88579032 -.00000079  00000-0  00000+0 0  9996
2  2215   3.8611  59.1309 0027950 166.4947 193.7702  1.07908737105713
Source of the keplerian elements: AFSPC